カタログに戻る

CZ-3B DEB

LostGTO
NORAD 40850·DEBRIS·🇨🇳 China

打ち上げ Dec 19, 2011 から Xichang Satellite Launch Center

Loading…

TLE

古いSource: Space-Track

元期: Apr 3, 2026, 11:13 UTC

1 40850U 11077AF  26093.46745925  .00000553  00000-0  23115-2 0  9992
2 40850  24.9861 263.5745 7484640 222.1733  46.2287  1.92991505 77851

AllMySatでCZ-3B DEBをリアルタイム追跡

Download on the App Store